Погода в Воронеже

Россия / Воронежская область     51°39′38″N   39°12′00″E
темп.,
°C
ветер,
м/с
пор.,
м/с
влажн.,
%
обл.,
%
осадки,
мм/ч
давл.,
гПа
погр.,
м
25 февраля, чт
чт2500:00−12ююз4995100 0.6 1035429
03:00−11ююз4994100 1.1 1033421
06:00−10юз41093100 0.2 1029408
09:00−7юз4994100 0.3 1027390
12:00−3юз51194100 0.1 1024463
15:00+1юз61395100 0.2 1020550
18:00+2з51499100 0.4 1019469
21:00+2з41199100 0.8 1018328
26 февраля, пт
пт2600:00+2з31199100 0.1 1018296
03:00+2зсз41299100 0.2 1018300
06:00+2з31199100 0.0 1017294
09:00+2з41199100 0.0 1016321
12:00+2з41199100 0.0 1015381
15:00+3з61398100 0.0 1014614
18:00+3з51498100 0.2 1011480
21:00+3з51395100 0.3 1011556
27 февраля, сб
сб2700:00+2з41195100 0.0 1010505
03:00+1з41094100 0.0 1009379
06:00+1з41194100 0.0 1008495
09:00+1з51193100 0.1 1007559
12:00+1з41096100 0.1 1006628
15:00+1з51196100 0.1 1006694
18:00+1зсз51197100 0.2 1007581
21:00+1сз41194100 0.3 1008621
28 февраля, вс
вс2800:00−3ссз51179100 0.1 1010615
03:00−6ссз598269 0.1 1013626
06:00−7с4882100 0.0 1014607
09:00−8ссз4780100 0.1 1017555
12:00−6ссз477496 0.0 1018614
15:00−5ссз477592 0.0 1019649
18:00−6ссз4882100 0.0 1020657
21:00−6с4985100 0.1 1023662
1 марта, пн
пн100:00−7ссз378789 0.0 1024521
03:00−7с378867 0.0 1026404
06:00−7ссз27909 0.0 1027386
09:00−6ссз368513 0.0 1028358
12:00−3сз357863 0.0 1029594
15:00−2зсз357679 0.0 1028666
18:00−3з4883100 0.0 1027598
21:00−3з4118681 0.0 1026471